Location: Drocourt
(49.0571°N, 1.7669°E)
Time: 21:14:31
(UTC+00:00)

S-56A Canister/Altair - Pass Details

Date: 13 April 2024
Orbit: 638 x 2488 km, 38.9° (Epoch: 20 May)

Event Time Altitude Azimuth Distance (km) Brightness Sun altitude
Rises 18:41:46 0° 224° (SW) 3,707 11.5 -0.7°
Reaches altitude 10° 18:44:20 10° 214° (SW) 2,970 10.8 -1.1°
Maximum altitude 18:50:50 33° 153° (SSE) 2,205 9.5 -2.1°
Drops below altitude 10° 18:59:59 10° 95° (E) 4,239 10.7 -3.5°
Enters shadow 19:03:55 - 88° (E) 5,386 11.2 -4.1°
Sets 19:04:24 0° 88° (E) 5,527 - -4.2°
